Location: Poughquag
(41.6090°N, 73.6820°W)
Time: 05:48:25
(UTC-04:00)

ACS3 Solar Sail - Pass Details

Date: 18 June 2024
Orbit: 993 x 1022 km, 97.4° (Epoch: 23 July)

Event Time Altitude Azimuth Distance (km) Brightness Sun altitude
Exits shadow 23:43:09 14° 225° (SW) 2,460 6.6 -22.8°
Maximum altitude 23:46:54 24° 269° (W) 1,941 6.5 -23.0°
Drops below altitude 10° 23:51:49 10° 322° (NW) 2,769 8.1 -23.3°
Sets 23:54:51 0° 336° (NNW) 3,721 9.2 -23.4°
